This is the latest recevied weather packets stored in our database for station/object OZ1IEP-5. If no packets are shown the sender has not sent any weather packets the latest 10 day(s).
| Time | Temp. | Humidity | Pressure | Rain* | Wind** | Luminosity | Snow |
|---|---|---|---|---|---|---|---|
| 1788163208 | 16.11° C | 94% | 1006.2 hPa | 0.51 mm | - | 141 W/m² | - |
| 1788162605 | 16.11° C | 94% | 1006.2 hPa | 0.51 mm | - | 104 W/m² | - |
| 1788162005 | 16.11° C | 94% | 1006.2 hPa | 0.51 mm | - | 109 W/m² | - |
| 1788161407 | 15.56° C | 94% | 1006.2 hPa | 0.51 mm | - | 49 W/m² | - |
| 1788160806 | 15.56° C | 94% | 1006.6 hPa | 0.25 mm | - | 44 W/m² | - |
| 1788160205 | 15.56° C | 94% | 1006.6 hPa | 0 mm | - | 19 W/m² | - |
| 1788159608 | 15.56° C | 94% | 1006.5 hPa | 0 mm | - | 39 W/m² | - |
| 1788159005 | 15.56° C | 94% | 1006.6 hPa | 0 mm | - | 56 W/m² | - |
| 1788158405 | 15° C | 94% | 1006.4 hPa | 0 mm | - | 32 W/m² | - |
| 1788157807 | 15° C | 94% | 1006.3 hPa | 0 mm | - | 33 W/m² | - |
| 1788157205 | 15° C | 94% | 1006.2 hPa | 0 mm | - | 47 W/m² | - |
| 1788156606 | 14.44° C | 94% | 1006.2 hPa | 0 mm | - | 62 W/m² | - |
| 1788156007 | 14.44° C | 94% | 1006.5 hPa | 0 mm | - | 54 W/m² | - |
| 1788155405 | 13.89° C | 94% | 1006.7 hPa | 0 mm | - | 39 W/m² | - |
| 1788154805 | 13.89° C | 94% | 1006.7 hPa | 0 mm | - | 26 W/m² | - |
| 1788154209 | 13.89° C | 94% | 1006.7 hPa | 0 mm | - | 37 W/m² | - |
| 1788153605 | 13.89° C | 94% | 1006.7 hPa | 0 mm | - | 44 W/m² | - |
| 1788153005 | 13.33° C | 94% | 1006.7 hPa | 0 mm | - | 23 W/m² | - |
| 1788152408 | 13.33° C | 93% | 1006.7 hPa | 0 mm | - | 16 W/m² | - |
| 1788151805 | 13.33° C | 93% | 1006.9 hPa | 0 mm | - | 14 W/m² | - |
| 1788151205 | 13.33° C | 93% | 1007.1 hPa | 0 mm | - | 11 W/m² | - |
| 1788150608 | 13.33° C | 93% | 1007 hPa | 0 mm | - | 5 W/m² | - |
| 1788150006 | 13.33° C | 93% | 1007 hPa | 0 mm | - | 0 W/m² | - |
| 1788149406 | 13.33° C | 93% | 1007.1 hPa | 0 mm | - | 0 W/m² | - |
| 1788148809 | 13.33° C | 93% | 1006.9 hPa | 0 mm | - | 0 W/m² | - |
* Rain latest hour (hover to see other rain measurements)
** Current wind speed in m/s (hover to see current wind gust speed)